Tracking 23731 objects as of 27-Sep-2021
HD Live streaming from Space Station
objects crossing your sky now

STARLINK-2333

Track STARLINK-2333 now!
10-day predictions
STARLINK-2333 is classified as:


NORAD ID: 47877
Int'l Code: 2021-021T
Perigee: 553.5 km
Apogee: 555.2 km
Inclination: 53.1 °
Period: 95.6 minutes
Semi major axis: 6925 km
RCS: Unknown
Launch date: March 14, 2021
Source: United States (US)
Launch site: AIR FORCE EASTERN TEST RANGE (AFETR)
aabbcc
Your satellite tracking list
Your tracking list is empty




NASA's NSSDC Master Catalog

Two Line Element Set (TLE):
1 47877U 21021T   21269.57936864  .00001903  00000-0  14662-3 0  9992
2 47877  53.0555   7.0105 0001224 127.7323 232.3777 15.06398831 31240
Source of the keplerian elements: AFSPC